Regional Weather Roundup
Issued by NWS

Home | Current Version | Previous Version | Text Only | Print | Product List | Glossary Off
Versions: 1 2 3 4 5 6 7 8 9 10 11 12 13 14 15 16 17 18 19 20 21 22 23 24 25 26 27 28 29 30 31 32 33 34 35 36 37 38 39 40 41 42 43 44 45 46 47 48 49 50

298
ASUS45 KBOU 302307
RWRCO

WEATHER ROUNDUP FOR COLORADO
NATIONAL WEATHER SERVICE DENVER/BOULDER CO
500 PM MDT SAT JUL 30 2016

NOTE: "FAIR" INDICATES FEW OR NO CLOUDS BELOW 12000 FEET WITH NO
SIGNIFICANT WEATHER AND/OR OBSTRUCTIONS TO VISIBILITY.

COZ001>005-013-030-031-310000-
...NORTHWEST COLORADO...

CITY           SKY/WX    TMP DP  RH WIND       PRES   REMARKS
CRAIG          FAIR      89  27  10 SW10G23   30.04F
HAYDEN         FAIR      86  30  13 W5        30.08F
MEEKER         FAIR      86  38  18 S8        30.06F
MOUNT WERNER   NOT AVBL
STEAMBOAT SPGS PTSUNNY   83  36  19 SW5       30.12S
WALDEN         CLOUDY    73  34  23 S3        30.24S
$$

COZ006>008-011-310000-
...WEST CENTRAL VALLEYS...

CITY           SKY/WX    TMP DP  RH WIND       PRES   REMARKS
GRAND JUNCTION FAIR      95  34  11 NW6       29.94F
MONTROSE       FAIR      86  38  18 CALM      30.07F
EAGLE          SUNNY     90  34  13 SW13G22   30.09F
RIFLE          FAIR      94  35  12 W8        29.99F
DELTA          NOT AVBL
NUCLA          NOT AVBL
$$

COZ017>023-064>068-310000-
...SOUTHWEST COLORADO...

CITY           SKY/WX    TMP DP  RH WIND       PRES   REMARKS
DURANGO        FAIR      82  44  26 N15       30.12F
CORTEZ         FAIR      93  41  16 W14       30.02F
PAGOSA SPRINGS FAIR      79  33  18 NE13G20   30.24S
TELLURIDE      TSTM      67  44  42 W5G16     30.40R
WOLF CREEK PAS CLOUDY    48  36  61 NE18G31   30.62F
$$

COZ009-010-012-014-032>034-037-058>063-310000-
...CENTRAL COLORADO...

CITY           SKY/WX    TMP DP  RH WIND       PRES   REMARKS
ASPEN          FAIR      83  36  18 NW12G18   30.20F
BUENA VISTA    FAIR      72  41  33 SE13G21   30.22S
COPPER MTN     CLOUDY    68  21  17 NW12G20   30.59S
BERTHOUD PASS  FAIR      55  39  54 NW20G30   30.61S
COTTONWOOD PAS FAIR      70  27  19 W13G23    30.38F
GUNNISON       FAIR      81  34  18 W13G22    30.23F
KREMMLING      FAIR      88  19   8 N13       30.16F
LEADVILLE      FAIR      75  22  13 NW10G17   30.36F
MONARCH PASS   CLOUDY    54  36  50 NE22G32   30.69S THUNDER
SALIDA         FAIR      72  45  37 CALM      30.31R
SUNLIGHT       FAIR      73  41  31 MISG      30.50F
WILKERSON PASS PTSUNNY   64  32  29 E8        30.54S
$$

COZ069>075-310000-
...SAN LUIS VALLEY/SANGRE DE CRISTO MOUNTAINS...

CITY           SKY/WX    TMP DP  RH WIND       PRES   REMARKS
ALAMOSA        FAIR      75  42  30 W22G30    30.23R
LA VETA PASS   TSTM      63  43  48 NW21G30   30.44R
SAGUACHE       FAIR      79  41  25 SW3       30.26S
$$

COZ035-036-038>040-310000-
...NORTHERN COLORADO FRONT RANGE...

CITY           SKY/WX    TMP DP  RH WIND       PRES   REMARKS
DENVER INTL AP FAIR      93  42  17 NE18G24   29.98F
DMNS CITY PARK   N/A     91  38  15 N7G16     29.98R
AURORA         MOSUNNY   92  37  14 E9G16     30.00F
FRONT RANGE AP MOSUNNY   93  39  15 N14G21    30.01S
ERIE MUNI ARPT FAIR      90  46  21 NE10G17   29.97R
BOULDER MUN AP FAIR      90  52  27 NE8       29.98S
CENTENNIAL     FAIR      90  33  13 NE9G16    30.02S
BROOMFIELD     MOSUNNY   91  45  19 NE9G16    30.01F
LONGMONT       NOT AVBL
$$

COZ041-046-047-076>085-087-088-310000-
...PIKES PEAK/PALMER DIVIDE AND SOUTHERN FOOTHILLS...

CITY           SKY/WX    TMP DP  RH WIND       PRES   REMARKS
COLO. SPRINGS  PTSUNNY   80  50  34 SW13G22   30.10S THUNDER
A. F. ACADEMY  FAIR      85  43  23 SE12      30.10S
SCHRIEVER AFB  NOT AVBL
ELLICOTT       NOT AVBL
FALCON         NOT AVBL
FORT CARSON    NOT AVBL
LIMON          FAIR      91  52  26 MISG      30.00S
MONUMENT HILL  FAIR      81  43  26 S6        30.16S
TRINIDAD       NOT AVBL
$$

COZ042>045-048>051-090-091-310000-
...NORTHEAST COLORADO...

CITY           SKY/WX    TMP DP  RH WIND       PRES   REMARKS
GREELEY ARPT   FAIR      90  61  37 SE9       29.96F
AKRON          FAIR      85  60  42 SE17G25   29.97F
BURLINGTON     FAIR      90  54  29 SE13      29.94F
WRAY           FAIR      90  55  31 SE14G21   29.93F
STERLING       NOT AVBL
HOLYOKE        NOT AVBL
FORT MORGAN    NOT AVBL
$$

COZ086-089-092>099-310000-
...SOUTHEAST COLORADO...

CITY           SKY/WX    TMP DP  RH WIND       PRES   REMARKS
PUEBLO         LGT RAIN  89  40  17 NW18G29   30.00R
LA JUNTA       FAIR      94  57  28 NE12      29.90R
LAMAR          FAIR      98  60  28 NE13      29.84F
SPRINGFIELD      N/A     90  55  30 S18G26    29.93F
$$




USA.gov is the U.S. government's official web portal to all federal, state and local government web resources and services.